DW4391 Weather Reports


time (UTC)temp
C
wind
direction
speed
KPH
gust
KPH
rain 1hr
cm
rain 24hr
cm
rain mn
cm
humidity
%
barometer
mb
20260504120107 7 259 0.0 0.0 0.00 0.00 0.00 93 1016.7
20260504081527 8 259 0.0 0.0 0.00 0.00 0.00 87 1015.8
20260504044553 11 259 0.0 0.0 0.00 0.00 0.00 77 1016.6
20260504043110 11 259 0.0 0.0 0.00 0.00 0.00 77 1016.6
20260504041547 11 259 0.0 0.0 0.00 0.00 0.00 76 1016.6
20260504040045 11 259 0.0 0.0 0.00 0.00 0.00 75 1016.7
20260504034550 12 259 0.0 0.0 0.00 0.00 0.00 73 1016.8
20260504033043 12 259 0.0 0.0 0.00 0.00 0.00 72 1016.8
20260504031550 12 259 0.0 0.0 0.00 0.00 0.00 69 1016.6
20260504030100 12 259 0.0 0.0 0.00 0.00 0.00 68 1016.6
20260504024542 12 259 0.0 0.0 0.00 0.00 0.00 68 1016.6
20260504023042 13 259 0.0 0.0 0.00 0.00 0.00 66 1016.4
20260504021546 13 259 0.0 0.0 0.00 0.00 0.00 64 1016.2
20260504020040 13 259 0.0 0.0 0.00 0.00 0.00 65 1016.1
20260504014540 13 259 0.0 0.0 0.00 0.00 0.00 62 1015.9
20260504013041 14 259 0.0 0.0 0.00 0.00 0.00 59 1015.8
20260504011539 15 259 0.0 0.0 0.00 0.00 0.00 58 1015.6
20260504010049 15 259 0.0 0.0 0.00 0.00 0.00 56 1015.5
20260504004544 16 259 0.0 0.0 0.00 0.00 0.00 57 1015.4
20260504003037 17 259 0.0 0.0 0.00 0.00 0.00 50 1015.3
20260504001539 17 259 0.0 0.0 0.00 0.00 0.00 47 1015.3
20260504000037 17 259 0.0 0.0 0.00 0.00 0.00 45 1015.3
20260503234539 18 259 0.0 0.0 0.00 0.00 0.00 41 1015.2
20260503233035 18 259 0.0 1.6 0.00 0.00 0.00 42 1015.2
20260503231534 18 258 0.0 0.0 0.00 0.00 0.00 41 1015.2
20260503230043 18 274 0.0 0.0 0.00 0.00 0.00 41 1015.2
20260503224533 18 249 0.0 0.0 0.00 0.00 0.00 45 1015.3
20260503223032 19 270 0.0 1.6 0.00 0.00 0.00 41 1015.2
20260503221534 19 214 0.0 3.2 0.00 0.00 0.00 41 1015.3
20260503220036 19 293 0.0 0.0 0.00 0.00 0.00 41 1015.3
20260503214545 19 311 0.0 0.0 0.00 0.00 0.00 43 1015.3
20260503213034 19 300 0.0 0.0 0.00 0.00 0.00 46 1015.4
20260503211530 19 299 0.0 1.6 0.00 0.00 0.00 44 1015.5
20260503210028 19 4 0.0 3.2 0.00 0.00 0.00 40 1015.6
20260503204530 20 274 0.0 6.4 0.00 0.00 0.00 38 1015.7
20260503203026 20 278 0.0 3.2 0.00 0.00 0.00 44 1016.0
20260503201526 20 310 0.0 3.2 0.00 0.00 0.00 44 1016.1
20260503200025 20 254 0.0 4.8 0.00 0.00 0.00 40 1016.4
20260503194525 20 316 0.0 3.2 0.00 0.00 0.00 45 1016.6
20260503193024 20 23 1.6 6.4 0.00 0.00 0.00 42 1016.9
20260503191523 21 9 0.0 1.6 0.00 0.00 0.00 40 1017.2
20260503190031 21 282 1.6 4.8 0.00 0.00 0.00 36 1017.4
20260503184523 21 288 0.0 3.2 0.00 0.00 0.00 36 1017.6
20260503183020 22 189 0.0 4.8 0.00 0.00 0.00 38 1017.8
20260503181537 21 340 0.0 4.8 0.00 0.00 0.00 39 1018.1
20260503180029 21 347 0.0 3.2 0.00 0.00 0.00 39 1018.1
20260503174513 20 58 0.0 3.2 0.00 0.00 0.00 42 1018.1
20260503173012 20 240 0.0 3.2 0.00 0.00 0.00 41 1018.3
20260503171515 19 211 0.0 3.2 0.00 0.00 0.00 45 1018.4